FW1946 Weather Reports


Display with metric or nautical units.
time (UTC)temp
F
wind
direction
speed
MPH
gust
MPH
rain 1hr
in
rain 24hr
in
rain mn
in
humidity
%
barometer
mb
20240226133053 37 275 3.0 16.0 0.00 0.33 0.13 88 1009.7
20240226131531 37 266 2.0 13.0 0.00 0.33 0.13 88 1009.4
20240226130146 37 253 4.0 15.0 0.00 0.33 0.13 90 1009.5
20240226121529 36 237 2.0 6.0 0.00 0.33 0.13 93 1009.2
20240226120029 36 203 1.0 5.0 0.00 0.33 0.13 94 1009.3
20240226114532 37 172 0.0 2.0 0.00 0.33 0.13 94 1009.3
20240226113107 37 176 0.0 4.0 0.00 0.33 0.13 94 1009.4
20240226111530 37 196 0.0 4.0 0.01 0.33 0.13 94 1009.4
20240226110030 37 172 2.0 5.0 0.01 0.33 0.13 94 1009.3
20240226104528 37 170 2.0 6.0 0.03 0.33 0.13 93 1009.3
20240226103039 37 164 2.0 6.0 0.03 0.33 0.12 93 1009.3
20240226100028 38 247 1.0 6.0 0.04 0.32 0.10 93 1009.6
20240226094531 38 246 2.0 8.0 0.03 0.30 0.10 93 1009.4
20240226093029 38 227 2.0 5.0 0.04 0.30 0.09 93 1009.1
20240226091533 38 194 2.0 6.0 0.05 0.28 0.08 92 1008.8
20240226084611 40 264 3.0 11.0 0.07 0.27 0.06 92 1008.8
20240226083031 40 263 3.0 13.0 0.08 0.26 0.04 92 1008.7
20240226081534 41 235 4.0 20.0 0.08 0.24 0.01 92 1008.5
20240226080117 41 252 3.0 10.0 0.06 0.21 0.00 92 1008.2
20240226074647 41 268 4.0 15.0 0.08 0.20 0.18 91 1008.2
20240226073034 42 269 5.0 12.0 0.08 0.18 0.16 91 1007.9
20240226070030 44 258 3.0 12.0 0.07 0.15 0.12 91 1007.8
20240226064530 45 256 5.0 14.0 0.04 0.12 0.10 91 1007.7
20240226060034 45 266 0.0 3.0 0.02 0.08 0.08 95 1007.0
20240226054607 45 247 0.0 1.0 0.02 0.08 0.07 95 1007.0
20240226053103 45 249 0.0 3.0 0.02 0.07 0.07 95 1007.0
20240226051533 45 236 0.0 2.0 0.03 0.07 0.06 94 1007.0
20240226050032 45 192 0.0 5.0 0.02 0.06 0.06 94 1007.0
20240226044530 45 272 0.0 3.0 0.02 0.06 0.05 95 1006.9
20240226043031 45 292 0.0 1.0 0.01 0.05 0.04 95 1006.8
20240226040034 45 292 0.0 1.0 0.01 0.04 0.04 94 1006.8
20240226034533 46 292 0.0 1.0 0.01 0.04 0.04 94 1007.0
20240226033106 46 292 0.0 0.0 0.01 0.04 0.04 94 1007.1
20240226031542 46 292 0.0 2.0 0.01 0.04 0.03 93 1007.3
20240226024646 46 292 0.0 0.0 0.01 0.03 0.03 92 1007.7
20240226023029 46 227 0.0 3.0 0.01 0.03 0.03 92 1007.8
20240226021644 46 249 0.0 2.0 0.01 0.03 0.02 91 1007.9
20240226020033 47 77 0.0 2.0 0.00 0.02 0.02 91 1008.0
20240226014538 47 93 0.0 2.0 0.01 0.02 0.02 89 1008.1
20240226013103 47 315 1.0 5.0 0.01 0.02 0.02 89 1008.3
20240226011532 48 90 0.0 4.0 0.01 0.02 0.02 88 1008.5
20240226004530 48 294 0.0 5.0 0.00 0.01 0.01 87 1009.0
20240226001531 49 284 1.0 5.0 0.00 0.01 0.01 86 1009.6
20240226000029 49 295 3.0 7.0 0.00 0.01 0.01 86 1009.8
20240225234533 49 291 2.0 7.0 0.00 0.01 0.01 86 1009.9
20240225233108 49 298 3.0 9.0 0.00 0.01 0.01 87 1010.2
20240225231528 49 290 3.0 9.0 0.00 0.01 0.01 87 1010.4
20240225230033 48 289 4.0 10.0 0.01 0.01 0.01 87 1010.6
20240225224537 48 291 4.0 14.0 0.01 0.01 0.01 86 1010.7
20240225223028 49 281 4.0 13.0 0.01 0.01 0.01 86 1010.9
20240225221534 49 282 3.0 9.0 0.01 0.01 0.00 86 1011.2
20240225220034 49 285 4.0 11.0 0.00 0.00 0.00 86 1011.5
20240225214532 49 269 3.0 14.0 0.00 0.00 0.00 85 1011.8
20240225213032 49 278 3.0 10.0 0.00 0.00 0.00 84 1011.9
20240225211547 51 288 4.0 11.0 0.00 0.00 0.00 79 1012.1
20240225210030 52 283 4.0 15.0 0.00 0.00 0.00 75 1012.3
20240225204649 53 283 4.0 14.0 0.00 0.00 0.00 74 1012.4
20240225203035 52 285 6.0 15.0 0.00 0.00 0.00 74 1012.6
20240225201532 52 290 6.0 14.0 0.00 0.00 0.00 74 1012.8
20240225200033 51 284 5.0 13.0 0.00 0.00 0.00 75 1013.1
20240225194535 51 279 4.0 11.0 0.00 0.00 0.00 75 1013.3
20240225193105 50 271 4.0 17.0 0.00 0.00 0.00 76 1013.5
20240225190030 50 256 7.0 17.0 0.00 0.00 0.00 74 1013.7
20240225184529 52 250 6.0 17.0 0.00 0.00 0.00 74 1013.8
20240225183041 52 252 7.0 16.0 0.00 0.00 0.00 74 1013.9
20240225181531 51 257 6.0 17.0 0.00 0.00 0.00 76 1013.9
20240225180030 49 273 5.0 16.0 0.00 0.00 0.00 78 1013.9
20240225174527 49 269 5.0 15.0 0.00 0.00 0.00 79 1014.0
20240225173036 48 274 4.0 11.0 0.00 0.00 0.00 80 1014.2
20240225171531 48 274 4.0 11.0 0.00 0.00 0.00 79 1014.1
20240225170028 48 280 4.0 15.0 0.00 0.00 0.00 78 1014.4
20240225164532 48 275 4.0 13.0 0.00 0.00 0.00 78 1014.6
20240225163031 48 270 4.0 13.0 0.00 0.00 0.00 78 1014.6
20240225161532 48 271 4.0 14.0 0.00 0.00 0.00 78 1014.8
20240225160106 48 276 3.0 11.0 0.00 0.00 0.00 78 1014.8
20240225154609 47 280 4.0 13.0 0.00 0.00 0.00 78 1014.8
20240225153106 47 276 2.0 7.0 0.00 0.00 0.00 79 1014.9
20240225151532 47 269 3.0 12.0 0.00 0.00 0.00 80 1015.1
20240225150030 47 268 3.0 11.0 0.00 0.00 0.00 80 1015.2
20240225144538 47 273 4.0 14.0 0.00 0.00 0.00 81 1015.3
20240225143028 47 273 3.0 8.0 0.00 0.00 0.00 81 1015.4
20240225140029 47 275 4.0 14.0 0.00 0.00 0.00 80 1015.6
20240225134541 47 273 4.0 14.0 0.00 0.00 0.00 80 1015.7